Historique des stations

Station météo de Salbris

Altitude de la station : 113 m







Données météorologiques pour le 25/09/2022
Date
Heure
Températures Humidité Point de rosée Vitesse
du vent
Direction Rafales Windchill Pression Pluviométrie
Cumul
Date
Heure
Températures Humidité Point de rosée Vitesse
du vent
Direction Rafales Windchill Pression Pluviométrie
Cumul
25/09/2022 16:1517.2 °C73 %12.2 °C3 km/hN6 km/h17.2 1017 hPa0.2 mm
25/09/2022 16:1417.1 °C74 %12.2 °C5 km/hN13 km/h17.2 1017 hPa0.2 mm
25/09/2022 15:5917.1 °C73 %12.2 °C6 km/hN13 km/h17.2 1017 hPa0.2 mm
25/09/2022 15:4517.3 °C73 %12.2 °C5 km/hN10 km/h17.2 1017 hPa0.2 mm
25/09/2022 15:4417.3 °C75 %12.8 °C3 km/hN13 km/h17.2 1017 hPa0.2 mm
25/09/2022 15:3016.3 °C79 %12.8 °C-N6 km/h16.1 1017 hPa0.2 mm
25/09/2022 15:2916.3 °C78 %12.2 °C2 km/hN13 km/h16.1 1017 hPa0.2 mm
25/09/2022 15:1515.9 °C82 %12.8 °C2 km/hN5 km/h16.1 1017 hPa0.2 mm
25/09/2022 15:1415.9 °C81 %12.8 °C2 km/hN13 km/h16.1 1017 hPa0.2 mm
25/09/2022 14:5916.0 °C79 %12.2 °C3 km/hN13 km/h16.1 1017 hPa0.2 mm
25/09/2022 14:4516.5 °C79 %12.8 °C3 km/hN8 km/h16.7 1017 hPa0.2 mm
25/09/2022 14:4416.6 °C79 %12.8 °C2 km/hN13 km/h16.7 1017 hPa0.2 mm
25/09/2022 14:3016.4 °C82 %13.3 °C6 km/hN8 km/h16.7 1017 hPa0.2 mm
25/09/2022 14:2916.4 °C81 %13.3 °C5 km/hN13 km/h16.7 1017 hPa0.2 mm
25/09/2022 14:1516.2 °C83 %13.3 °C3 km/hN10 km/h16.1 1017 hPa0.2 mm
25/09/2022 14:1416.2 °C82 %13.3 °C2 km/hN13 km/h16.1 1017 hPa0.2 mm
25/09/2022 13:5915.7 °C83 %12.8 °C2 km/hN13 km/h15.6 1017 hPa0.2 mm
25/09/2022 13:4515.3 °C87 %13.3 °C2 km/hN10 km/h15.6 1017 hPa0.2 mm
25/09/2022 13:4415.2 °C87 %13.3 °C-N13 km/h15.0 1017 hPa0.2 mm
25/09/2022 13:3015.0 °C86 %12.8 °C3 km/hN10 km/h15.0 1017 hPa0.2 mm
25/09/2022 13:2914.9 °C86 %12.8 °C5 km/hN13 km/h15.0 1017 hPa0.2 mm
25/09/2022 13:1514.8 °C88 %12.8 °C3 km/hN13 km/h15.0 1017 hPa0.2 mm
25/09/2022 13:1414.8 °C88 %12.8 °C8 km/hN13 km/h15.0 1017 hPa0.2 mm
25/09/2022 12:5914.3 °C91 %12.8 °C5 km/hN13 km/h14.4 1017 hPa0.2 mm
25/09/2022 12:4514.1 °C91 %12.8 °C5 km/hN10 km/h13.9 1017 hPa0.2 mm
25/09/2022 12:4414.1 °C91 %12.8 °C6 km/hN13 km/h13.9 1017 hPa0.2 mm
25/09/2022 12:3014.0 °C92 %12.8 °C2 km/hN13 km/h13.9 1017 hPa0.2 mm
25/09/2022 12:2914.0 °C92 %12.8 °C2 km/hN13 km/h13.9 1017 hPa0.2 mm
25/09/2022 12:1513.8 °C91 %12.2 °C-N10 km/h13.9 1017 hPa0.2 mm
25/09/2022 12:1413.8 °C91 %12.2 °C3 km/hN13 km/h13.9 1017 hPa0.2 mm
25/09/2022 11:5913.9 °C92 %12.8 °C-N13 km/h13.9 1017 hPa0.2 mm
25/09/2022 11:4513.8 °C92 %12.8 °C2 km/hN5 km/h13.9 1017 hPa0.2 mm
25/09/2022 11:4413.8 °C92 %12.8 °C-N13 km/h13.9 1017 hPa0.2 mm
25/09/2022 11:3013.8 °C92 %12.8 °C-N6 km/h13.9 1017 hPa0.2 mm
25/09/2022 11:2913.9 °C92 %12.8 °C5 km/hN13 km/h13.9 1017 hPa0.2 mm
25/09/2022 11:1513.6 °C94 %12.8 °C3 km/hN6 km/h13.9 1017 hPa0.2 mm
25/09/2022 11:1413.6 °C93 %12.8 °C2 km/hN13 km/h13.3 1017 hPa0.2 mm
25/09/2022 10:5913.3 °C95 %12.8 °C2 km/hN13 km/h13.3 1017 hPa0.2 mm
25/09/2022 10:4513.0 °C95 %12.2 °C2 km/hN10 km/h12.8 1017 hPa0.2 mm
25/09/2022 10:4413.0 °C95 %12.2 °C5 km/hN13 km/h12.8 1017 hPa0.2 mm
25/09/2022 10:3012.8 °C95 %12.2 °C3 km/hN8 km/h12.8 1017 hPa0.2 mm
25/09/2022 10:2912.8 °C95 %12.2 °C2 km/hN13 km/h12.8 1017 hPa0.2 mm
25/09/2022 10:1512.7 °C96 %12.2 °C3 km/hN5 km/h12.8 1017 hPa0.2 mm
25/09/2022 10:1412.7 °C96 %12.2 °C2 km/hN13 km/h12.8 1017 hPa0.2 mm
25/09/2022 09:5912.6 °C96 %12.2 °C3 km/hN13 km/h12.8 1017 hPa0.2 mm
25/09/2022 09:4512.5 °C96 %11.7 °C2 km/hN5 km/h12.8 1016 hPa0.2 mm
25/09/2022 09:4412.5 °C96 %11.7 °C2 km/hN13 km/h12.8 1017 hPa0.2 mm
25/09/2022 09:3012.3 °C96 %11.7 °C3 km/hN5 km/h12.2 1016 hPa0.2 mm
25/09/2022 09:2912.3 °C96 %11.7 °C2 km/hN13 km/h12.2 1016 hPa0.2 mm
25/09/2022 09:1512.1 °C96 %11.7 °C-N5 km/h12.2 1016 hPa-
25/09/2022 09:1412.1 °C96 %11.7 °C-N13 km/h12.2 1016 hPa-
25/09/2022 08:5911.9 °C96 %11.1 °C-N13 km/h12.2 1016 hPa-
25/09/2022 08:4511.9 °C96 %11.1 °C2 km/hN3 km/h11.7 1016 hPa-
25/09/2022 08:4411.9 °C96 %11.1 °C2 km/hN13 km/h11.7 1016 hPa-
25/09/2022 08:3011.8 °C96 %11.1 °C-N5 km/h11.7 1016 hPa-
25/09/2022 08:2911.8 °C96 %11.1 °C-N13 km/h11.7 1016 hPa-
25/09/2022 08:1511.8 °C96 %11.1 °C-N5 km/h11.7 1016 hPa-
25/09/2022 08:1411.8 °C96 %11.1 °C3 km/hN13 km/h11.7 1016 hPa-
25/09/2022 07:5911.8 °C96 %11.1 °C5 km/hN13 km/h11.7 1016 hPa-
25/09/2022 07:4511.9 °C96 %11.1 °C2 km/hN6 km/h11.7 1016 hPa-
25/09/2022 07:4411.9 °C96 %11.1 °C2 km/hN13 km/h11.7 1016 hPa-
25/09/2022 07:3012.0 °C96 %11.7 °C2 km/hN6 km/h12.2 1016 hPa-
25/09/2022 07:2911.9 °C96 %11.1 °C3 km/hN13 km/h12.2 1016 hPa-
25/09/2022 07:1512.1 °C96 %11.7 °C3 km/hN5 km/h12.2 1016 hPa-
25/09/2022 07:1412.0 °C96 %11.7 °C5 km/hN13 km/h12.2 1016 hPa-
25/09/2022 06:5912.0 °C96 %11.7 °C5 km/hN13 km/h12.2 1016 hPa-
25/09/2022 06:4512.1 °C96 %11.7 °C3 km/hN10 km/h12.2 1016 hPa-
25/09/2022 06:4412.1 °C96 %11.7 °C8 km/hN13 km/h11.7 1016 hPa-
25/09/2022 06:3012.1 °C96 %11.7 °C5 km/hN6 km/h12.2 1016 hPa-
25/09/2022 06:2912.1 °C96 %11.7 °C2 km/hN13 km/h12.2 1016 hPa-
25/09/2022 06:1512.1 °C96 %11.7 °C2 km/hN8 km/h12.2 1015 hPa-
25/09/2022 06:1412.1 °C96 %11.7 °C-N13 km/h12.2 1015 hPa-
25/09/2022 05:5912.2 °C96 %11.7 °C2 km/hN13 km/h12.2 1015 hPa-
25/09/2022 05:4512.3 °C96 %11.7 °C5 km/hN13 km/h12.2 1015 hPa-
25/09/2022 05:4412.3 °C96 %11.7 °C5 km/hN13 km/h12.2 1015 hPa-
25/09/2022 05:3012.4 °C96 %11.7 °C2 km/hN10 km/h12.2 1015 hPa-
25/09/2022 05:2912.4 °C96 %11.7 °C3 km/hN13 km/h12.2 1015 hPa-
25/09/2022 05:1412.4 °C96 %11.7 °C5 km/hN13 km/h12.2 1015 hPa-
25/09/2022 04:5912.4 °C96 %11.7 °C6 km/hN13 km/h12.2 1015 hPa-
25/09/2022 04:4512.6 °C96 %12.2 °C6 km/hN10 km/h12.8 1015 hPa-
25/09/2022 04:4412.6 °C96 %12.2 °C2 km/hN10 km/h12.8 1015 hPa-
25/09/2022 04:3012.6 °C96 %12.2 °C2 km/hN6 km/h12.8 1015 hPa-
25/09/2022 04:2912.6 °C96 %12.2 °C2 km/hN10 km/h12.8 1015 hPa-
25/09/2022 04:1512.6 °C96 %12.2 °C-N6 km/h12.8 1015 hPa-
25/09/2022 04:1412.6 °C96 %12.2 °C-N10 km/h12.8 1015 hPa-
25/09/2022 03:5912.7 °C96 %12.2 °C3 km/hN10 km/h12.8 1015 hPa-
25/09/2022 03:4512.7 °C96 %12.2 °C3 km/hN10 km/h12.8 1015 hPa-
25/09/2022 03:4412.7 °C96 %12.2 °C2 km/hN6 km/h12.8 1015 hPa-
25/09/2022 03:3012.6 °C96 %12.2 °C3 km/hN8 km/h12.8 1015 hPa-
25/09/2022 03:2912.6 °C96 %12.2 °C3 km/hN6 km/h12.8 1015 hPa-
25/09/2022 03:1512.7 °C96 %12.2 °C-N6 km/h12.8 1015 hPa-
25/09/2022 03:1412.7 °C96 %12.2 °C-N6 km/h12.8 1015 hPa-
25/09/2022 02:5912.6 °C96 %12.2 °C2 km/hN5 km/h12.8 1015 hPa-
25/09/2022 02:4512.4 °C96 %11.7 °C---12.2 1016 hPa-
25/09/2022 02:4412.4 °C96 %11.7 °C---12.2 1016 hPa-
25/09/2022 02:3012.4 °C96 %11.7 °C---12.2 1016 hPa-
25/09/2022 02:2912.3 °C96 %11.7 °C---12.2 1016 hPa-
25/09/2022 02:1511.9 °C96 %11.1 °C---12.2 1016 hPa-
25/09/2022 02:1411.9 °C96 %11.1 °C---12.2 1016 hPa-
25/09/2022 01:5911.8 °C96 %11.1 °C---11.7 1015 hPa-
25/09/2022 01:4511.7 °C95 %11.1 °C---11.7 1015 hPa-
25/09/2022 01:4411.7 °C95 %11.1 °C---11.7 1015 hPa-
25/09/2022 01:3011.8 °C95 %11.1 °C---11.7 1015 hPa-
25/09/2022 01:2911.8 °C95 %11.1 °C---11.7 1016 hPa-
25/09/2022 01:1512.1 °C95 %11.1 °C---12.2 1015 hPa-
25/09/2022 01:1412.1 °C95 %11.1 °C---12.2 1016 hPa-
25/09/2022 00:5912.2 °C95 %11.7 °C---12.2 1016 hPa-
25/09/2022 00:4512.3 °C95 %11.7 °C---12.2 1015 hPa-
25/09/2022 00:4412.3 °C95 %11.7 °C---12.2 1016 hPa-
25/09/2022 00:3012.3 °C95 %11.7 °C---12.2 1016 hPa-
25/09/2022 00:2912.3 °C95 %11.7 °C---12.2 1016 hPa-
25/09/2022 00:1412.4 °C95 %11.7 °C---12.2 1015 hPa-


Minima :

Température : 11.7 °C
Humidité : 73 %
Point de rosée : 11.1 °C
Vent moyen : 2 km/h
Windchill : 11.7
Pression atm. : 1015 hPa
Maxima :

Température : 17.3 °C
Humidité : 96 %
Point de rosée : 13.3 °C
Vent moyen : 8 km/h
Windchill : 17.2
Pression atm. : 1017 hPa
Rafales max : 13 km/h
Cumul de pluie sur 24H : 0.2 mm

Salbris est une commune du département Loir-et-Cher (41).
La station météorologique du réseau de l'association la plus proche de Salbris est celle de Orçay



Icône Facebook Association Météo Centre Icône Twitter Association Météo Centre Icône Chaîne Youtube Association Météo Centre Icône contact Association Météo Centre Icône Insta Association Météo Centre